AirNav   Everest Fuels
 
 461 users online  

99MO Parkland Health Center Heliport
Bonne Terre, Missouri, USA

GOING TO BONNE TERRE?


FAA INFORMATION EFFECTIVE 21 MAY 2020

Location

FAA Identifier: 99MO
Lat/Long: 37-54-43.1100N 090-31-55.6700W
37-54.718500N 090-31.927833W
37.9119750,-90.5321306
(estimated)
Elevation: 850 ft. / 259 m (estimated)
Variation: 01E (1995)
From city: 1 mile S of BONNE TERRE, MO
Time zone: UTC -5 (UTC -6 during Standard Time)
Zip code: 63628

Heliport Operations

Heliport use: Private use, FOR MEDICAL USE ONLY.
Activation date: 09/1996
Control tower: no
ARTCC: KANSAS CITY CENTER
FSS: COLUMBIA FLIGHT SERVICE STATION
Attendance: CONTINUOUS
Wind indicator: yes
Segmented circle: no
Lights: FOR PERIMETER LIGHTS CALL 573-760-8163.

Heliport Communications

WX AWOS-3PT at FAM (10 nm SE): 119.275 (573-756-6042)

Nearby radio navigation aids

VOR radial/distance  VOR name  Freq  Var
FAMr314/20.1FARMINGTON VORTAC115.7001E

Heliport Services

Runway Information

Helipad H1

Dimensions: 40 x 40 ft. / 12 x 12 m
Surface: asphalt
Latitude: 37-54.718500N
Longitude: 090-31.927833W
Elevation: 850.0 ft.
Traffic pattern: leftleft

Heliport Ownership and Management from official FAA records

Ownership: Privately-owned
Owner: PARKLAND HEALTH CENTER, BONNE TERRE
7245 RAIDER ROAD
BONNE TERRE, MO 63628
Phone (573) 756-6453
Manager: LYNN RASNICK, ADMIN
7245 RAIDER ROAD
BONNE TERRE, MO 63628
Phone (573) 756-6453

Additional Remarks

A52-H1 40 FT POWER LINE 75 FT E & 75 FT BLDG 200 FT N OF HELIPAD.
OWNER DESIRES ARPT NOT BE CHARTED.
FOR CD CTC KANSAS CITY ARTCC AT 913-254-8508.

Instrument Procedures

There are no published instrument procedures at 99MO.

Some nearby airports with instrument procedures:

8WC - Washington County Airport (9 nm W)
KFAM - Farmington Regional Airport (10 nm SE)
KFES - Festus Memorial Airport (18 nm N)
H88 - A Paul Vance Fredericktown Regional Airport (22 nm SE)
KPCD - Perryville Regional Airport (32 nm E)
 
Loc | Ops | Rwys | IFR | FBO | Links
Com | Nav | Svcs | Stats | Notes
Area around 99MO (Parkland Health Center Heliport)
 
Road maps at: MapQuest Bing Google
 
Aerial photo
No photo
 
Sectional chart

 
Airport distance calculator
Flying to Parkland Health Center Heliport? Find the distance to fly.

From to 99MO

Sunrise and sunset
Times for 27-May-2020
 Local
(UTC-5)
 Zulu
(UTC)
Morning civil twilight05:1410:14
Sunrise05:4410:44
Sunset20:1501:15
Evening civil twilight20:4501:45

Current date and time
Zulu (UTC)  27-May-2020 09:59:28
Local (UTC-5)  27-May-2020 04:59:28
 
METAR
KFAM 
10nm SE 
270934Z AUTO 00000KT 5SM BR OVC003 19/19 A2989 RMK AO2 RAE14 CIG 003V006 P0000
TAF
KCPS 
43nm NE 
270811Z 2708/2806 13007KT 6SM -SHRA OVC030 FM271100 14006KT 6SM -SHRA OVC015 FM271700 13007KT 4SM -SHRA OVC020 FM272000 13008KT P6SM VCTS OVC030CB FM272300 13007KT P6SM BKN045
KSUS 
45nm N 
270520Z 2706/2806 VRB04KT P6SM BKN040 OVC100 FM270800 VRB04KT P6SM VCSH OVC040 FM271000 VRB04KT P6SM VCSH OVC020 FM272000 13008KT P6SM VCTS OVC030CB FM272300 13007KT P6SM BKN045
KBLV 
50nm NE 
270800Z 2708/2814 15006KT 9000 -SHRA OVC020 QNH2989INS BECMG 2709/2710 15009KT 8000 -SHRA OVC015 QNH2987INS TEMPO 2716/2718 16010G15KT 8000 -TSRA OVC010CB BECMG 2719/2720 15006KT 9999 NSW BKN020 QNH2985INS BECMG 2804/2805 15006KT 4800 BR BKN005 QNH2988INS TX22/2717Z TN17/2708Z
NOTAMs
Click for the latest NOTAMs
NOTAMs are issued by the DoD/FAA and will open in a separate window not controlled by AirNav.

 

 
 

Would you like to see your business listed on this page?

 If your business provides an interesting product or service to pilots, flight crews, aircraft, or users of the Parkland Health Center Heliport, you should consider listing it here.  To start the listing process, click on the button below
 
Add a business
 

Other Pages about Parkland Health Center Heliport

Update a link
 
Copyright © AirNav, LLC. All rights reserved. Privacy Policy  Contact